When you browse on this site, cookies collect data to enhance your experience and personalize the content and advertising you see.
Visit our Privacy Policy to learn more. By continuing to use the site, you agree to this use of cookies and data.
  • In Latvia
  • List of Countries
  • For 7 days
  • Water Temperature
  • Weather Map
  • Weather Widgets
  • user-avatar
    Login

    Hourly Weather Hubyn

    Today, 3 April, Friday

    Time Temperature Precipitation Wind Pressure Humidity
    00:00 +3°C° 0 mm 2 mps 747 mmHg 69%
    01:00 +3°C° 0 mm 2 mps 747 mmHg 71%
    02:00 +1°C° 0 mm 3 mps 747 mmHg 72%
    03:00 +1°C° 0 mm 3 mps 746 mmHg 73%
    04:00 +1°C° 0 mm 3 mps 746 mmHg 73%
    05:00 +1°C° 0 mm 3 mps 746 mmHg 74%
    06:00 +1°C° 0 mm 4 mps 746 mmHg 67%
    07:00 +4°C° 0 mm 4 mps 746 mmHg 61%
    08:00 +5°C° 0 mm 5 mps 746 mmHg 55%
    09:00 +7°C° 0 mm 6 mps 746 mmHg 49%
    10:00 +8°C° 0 mm 6 mps 746 mmHg 42%
    11:00 +10°C° 0 mm 7 mps 745 mmHg 36%
    12:00 +11°C° 0 mm 7 mps 745 mmHg 36%
    13:00 +11°C° 0 mm 7 mps 745 mmHg 35%
    14:00 +12°C° 0 mm 7 mps 745 mmHg 35%
    15:00 +11°C° 0 mm 6 mps 745 mmHg 37%
    16:00 +11°C° 0 mm 6 mps 745 mmHg 38%
    17:00 +12°C° 0 mm 5 mps 745 mmHg 40%
    18:00 +11°C° 0 mm 4 mps 746 mmHg 47%
    19:00 +8°C° 0 mm 4 mps 746 mmHg 53%
    20:00 +8°C° 0 mm 3 mps 747 mmHg 59%
    21:00 +7°C° 0 mm 3 mps 747 mmHg 66%
    22:00 +5°C° 0 mm 3 mps 748 mmHg 72%
    23:00 +5°C° 0 mm 2 mps 748 mmHg 78%

    Tomorrow, 4 April, Saturday

    Time Temperature Precipitation Wind Pressure Humidity
    00:00 +5°C° 0 mm 2 mps 749 mmHg 80%
    01:00 +3°C° 0 mm 3 mps 750 mmHg 81%
    02:00 +3°C° 0 mm 3 mps 750 mmHg 83%
    03:00 +2°C° 0 mm 3 mps 751 mmHg 82%
    04:00 +2°C° 0 mm 3 mps 751 mmHg 80%
    05:00 +1°C° 0 mm 3 mps 751 mmHg 79%
    06:00 +2°C° 0 mm 3 mps 752 mmHg 73%
    07:00 +3°C° 0 mm 4 mps 753 mmHg 66%
    08:00 +4°C° 0 mm 4 mps 753 mmHg 60%
    09:00 +6°C° 0 mm 4 mps 754 mmHg 53%
    10:00 +7°C° 0 mm 4 mps 754 mmHg 46%
    11:00 +8°C° 0 mm 5 mps 754 mmHg 39%
    12:00 +8°C° 0 mm 5 mps 755 mmHg 36%
    13:00 +9°C° 0 mm 5 mps 755 mmHg 32%
    14:00 +9°C° 0 mm 5 mps 755 mmHg 28%
    15:00 +9°C° 0 mm 5 mps 755 mmHg 28%
    16:00 +9°C° 0 mm 5 mps 755 mmHg 29%
    17:00 +8°C° 0 mm 5 mps 755 mmHg 29%
    18:00 +7°C° 0 mm 4 mps 756 mmHg 34%
    19:00 +7°C° 0 mm 3 mps 757 mmHg 39%
    20:00 +4°C° 0 mm 3 mps 757 mmHg 44%
    21:00 +4°C° 0 mm 3 mps 758 mmHg 47%
    22:00 +3°C° 0 mm 3 mps 758 mmHg 50%
    23:00 +2°C° 0 mm 3 mps 759 mmHg 53%

    Day after tomorrow, 5 April, Sunday

    Time Temperature Precipitation Wind Pressure Humidity
    00:00 +2°C° 0 mm 3 mps 759 mmHg 55%
    01:00 +2°C° 0 mm 3 mps 759 mmHg 58%
    02:00 +1°C° 0 mm 3 mps 760 mmHg 60%
    03:00 +1°C° 0 mm 3 mps 760 mmHg 63%
    04:00 0°C° 0 mm 3 mps 761 mmHg 66%
    05:00 -1°C° 0 mm 4 mps 761 mmHg 69%
    06:00 0°C° 0 mm 4 mps 762 mmHg 64%
    07:00 0°C° 0 mm 5 mps 762 mmHg 58%
    08:00 +1°C° 0 mm 6 mps 763 mmHg 53%
    09:00 +2°C° 0 mm 6 mps 763 mmHg 48%
    10:00 +3°C° 0 mm 6 mps 764 mmHg 43%
    11:00 +4°C° 0 mm 6 mps 764 mmHg 39%
    12:00 +6°C° 0 mm 5 mps 764 mmHg 35%
    13:00 +6°C° 0 mm 5 mps 764 mmHg 32%
    14:00 +7°C° 0 mm 5 mps 764 mmHg 28%
    15:00 +7°C° 0 mm 5 mps 765 mmHg 29%
    16:00 +6°C° 0 mm 5 mps 765 mmHg 30%
    17:00 +6°C° 0 mm 4 mps 765 mmHg 30%
    18:00 +5°C° 0 mm 4 mps 765 mmHg 35%
    19:00 +4°C° 0 mm 3 mps 766 mmHg 40%
    20:00 +3°C° 0 mm 2 mps 766 mmHg 45%
    21:00 +3°C° 0 mm 2 mps 767 mmHg 47%
    22:00 +2°C° 0 mm 2 mps 767 mmHg 49%
    23:00 +3°C° 0 mm 1 mps 767 mmHg 51%

    6 April, Monday

    Time Temperature Precipitation Wind Pressure Humidity
    00:00 +2°C° 0 mm 1 mps 768 mmHg 51%
    01:00 +2°C° 0 mm 1 mps 768 mmHg 52%
    02:00 0°C° 0 mm 0 mps 768 mmHg 53%
    03:00 +1°C° 0 mm 1 mps 768 mmHg 53%
    04:00 +1°C° 0 mm 1 mps 768 mmHg 53%
    05:00 +1°C° 0 mm 1 mps 769 mmHg 53%
    06:00 +3°C° 0 mm 1 mps 769 mmHg 49%
    07:00 +4°C° 0 mm 1 mps 769 mmHg 45%
    08:00 +5°C° 0 mm 2 mps 769 mmHg 41%
    09:00 +6°C° 0 mm 2 mps 769 mmHg 37%
    10:00 +9°C° 0 mm 1 mps 769 mmHg 33%
    11:00 +10°C° 0 mm 1 mps 769 mmHg 29%
    12:00 +11°C° 0 mm 1 mps 769 mmHg 28%
    13:00 +11°C° 0 mm 1 mps 769 mmHg 27%
    14:00 +12°C° 0 mm 2 mps 769 mmHg 26%
    15:00 +12°C° 0 mm 2 mps 768 mmHg 27%
    16:00 +12°C° 0 mm 1 mps 768 mmHg 28%
    17:00 +12°C° 0 mm 1 mps 768 mmHg 29%
    18:00 +10°C° 0 mm 1 mps 768 mmHg 33%
    19:00 +9°C° 0 mm 1 mps 767 mmHg 38%
    20:00 +7°C° 0 mm 1 mps 767 mmHg 42%
    21:00 +7°C° 0 mm 1 mps 767 mmHg 43%
    22:00 +6°C° 0 mm 1 mps 767 mmHg 45%
    23:00 +5°C° 0 mm 2 mps 767 mmHg 47%

    7 April, Tuesday

    Time Temperature Precipitation Wind Pressure Humidity
    00:00 +4°C° 0 mm 2 mps 767 mmHg 47%
    01:00 +4°C° 0 mm 2 mps 767 mmHg 48%
    02:00 +3°C° 0 mm 2 mps 767 mmHg 49%
    03:00 +3°C° 0 mm 2 mps 767 mmHg 50%
    04:00 +3°C° 0 mm 2 mps 767 mmHg 51%
    05:00 +2°C° 0 mm 2 mps 767 mmHg 52%
    06:00 +4°C° 0 mm 2 mps 767 mmHg 50%
    07:00 +5°C° 0 mm 2 mps 767 mmHg 47%
    08:00 +7°C° 0 mm 2 mps 767 mmHg 44%
    09:00 +9°C° 0 mm 2 mps 766 mmHg 39%
    10:00 +11°C° 0 mm 3 mps 766 mmHg 34%
    11:00 +13°C° 0 mm 3 mps 766 mmHg 29%
    12:00 +13°C° 0 mm 3 mps 766 mmHg 28%
    13:00 +14°C° 0 mm 3 mps 765 mmHg 28%
    14:00 +15°C° 0 mm 4 mps 765 mmHg 27%
    15:00 +15°C° 0 mm 4 mps 764 mmHg 28%
    16:00 +16°C° 0 mm 3 mps 764 mmHg 30%
    17:00 +16°C° 0 mm 3 mps 764 mmHg 32%
    18:00 +13°C° 0 mm 3 mps 763 mmHg 37%
    19:00 +11°C° 0 mm 3 mps 763 mmHg 42%
    20:00 +9°C° 0 mm 3 mps 763 mmHg 47%
    21:00 +9°C° 0 mm 3 mps 763 mmHg 49%
    22:00 +8°C° 0 mm 3 mps 763 mmHg 51%
    23:00 +7°C° 0 mm 3 mps 763 mmHg 53%

    8 April, Wednesday

    Time Temperature Precipitation Wind Pressure Humidity
    00:00 +7°C° 0 mm 3 mps 763 mmHg 55%
    01:00 +7°C° 0 mm 3 mps 763 mmHg 56%
    02:00 +5°C° 0 mm 3 mps 763 mmHg 57%
    03:00 +5°C° 0 mm 3 mps 763 mmHg 59%
    04:00 +4°C° 0 mm 3 mps 762 mmHg 61%
    05:00 +4°C° 0 mm 3 mps 762 mmHg 62%
    06:00 +7°C° 0 mm 3 mps 762 mmHg 59%
    07:00 +7°C° 0 mm 4 mps 762 mmHg 56%
    08:00 +10°C° 0 mm 4 mps 762 mmHg 53%
    09:00 +12°C° 0 mm 4 mps 762 mmHg 49%
    10:00 +13°C° 0 mm 5 mps 761 mmHg 45%
    11:00 +15°C° 0 mm 5 mps 761 mmHg 40%
    12:00 +16°C° 0 mm 5 mps 761 mmHg 41%
    13:00 +17°C° 0 mm 5 mps 761 mmHg 42%
    14:00 +19°C° 0 mm 5 mps 760 mmHg 42%
    15:00 +17°C° 0 mm 5 mps 760 mmHg 45%
    16:00 +17°C° 0 mm 5 mps 760 mmHg 48%
    17:00 +17°C° 0 mm 5 mps 760 mmHg 50%
    18:00 +15°C° 0 mm 4 mps 760 mmHg 55%
    19:00 +13°C° 0 mm 4 mps 760 mmHg 59%
    20:00 +11°C° 0 mm 3 mps 760 mmHg 64%
    21:00 +10°C° 0 mm 3 mps 761 mmHg 64%
    22:00 +9°C° 0 mm 3 mps 761 mmHg 64%
    23:00 +8°C° 0 mm 2 mps 761 mmHg 64%
    Show more